Wind_Speed
14 15 16 18 19 19 20 21 21 20 19 18 18 18 17 15 13 10 5 4 2 2 1 0 0 1 1 1 1 2 4 7 4 5 4 3 5 2 6 10 4 7 8 7 7
14 16 17 18 19 20 21 22 22 22 20 18 17 17 15 13 12 4 7 0 3 3 2 1 1 2 3 2 2 5 5 6 5 3 5 5 7 10 10 9 8 12 11 7 10
15 16 18 19 20 20 22 23 24 23 21 19 16 15 13 10 5 1 3 2 2 2 1 2 3 4 6 4 6 3 6 6 4 5 6 9 10 11 10 11 9 10 13 15 16
16 17 18 20 21 22 24 24 24 26 22 17 15 12 10 4 3 2 3 2 1 0 1 2 3 4 5 5 1 7 7 9 9 5 9 12 15 15 15 16 12 11 13 15 16
17 19 20 21 22 23 24 25 27 27 21 16 12 10 5 3 2 3 4 3 2 1 3 4 6 6 8 4 5 11 8 7 9 11 13 14 18 17 19 18 11 8 8 9 10
18 19 19 20 21 23 24 26 27 26 23 18 12 8 3 5 2 1 2 1 0 1 3 3 4 5 8 8 8 8 11 16 17 17 16 15 17 10 8 5 7 9 10 11 7
18 18 18 20 21 22 22 24 24 24 18 18 10 4 2 1 2 1 2 1 1 2 3 5 5 6 4 8 4 9 13 14 18 12 5 4 13 15 14 8 10 12 14 12 7
16 17 18 19 20 22 23 24 24 22 12 19 4 3 1 3 2 1 2 3 3 3 2 4 5 8 9 7 13 14 13 12 8 4 5 5 15 7 5 12 12 16 18 16 10
16 16 18 20 21 22 23 23 23 8 23 10 7 1 3 3 2 1 1 3 2 3 2 2 4 8 6 10 11 13 11 12 12 1 7 10 14 7 10 17 22 19 13 9 9
16 17 20 21 23 22 24 20 16 6 23 5 7 2 3 1 3 2 3 2 3 3 4 6 6 7 8 8 11 16 18 19 18 12 11 17 22 19 23 20 19 16 7 6 6
16 18 20 21 21 23 26 15 14 2 18 5 10 6 5 10 6 2 3 4 5 8 11 9 8 11 13 13 15 17 19 22 20 16 18 19 22 17 19 19 18 14 5 4 4
14 17 20 21 17 21 22 14 11 10 11 5 2 3 4 4 1 3 2 5 5 10 12 8 14 9 11 10 14 17 19 21 19 14 7 16 19 20 21 18 1 1 2 4 7
13 17 21 21 12 20 20 19 18 13 7 1 0 1 1 2 1 2 1 2 7 11 10 13 15 2 7 10 13 15 17 19 20 19 19 21 25 21 8 9 10 7 2 5 9
16 19 21 18 8 16 10 21 20 12 5 5 2 1 1 2 3 2 2 2 4 8 7 11 9 8 11 15 15 19 16 18 16 16 17 17 19 16 8 14 10 7 4 6 8
16 17 16 16 14 9 13 18 20 5 6 3 3 0 2 5 4 4 4 4 9 13 5 14 10 13 16 17 14 20 13 14 17 19 20 25 15 17 19 11 15 8 6 8 10
19 16 16 11 10 11 11 18 10 5 4 3 2 2 4 3 3 5 4 6 9 10 15 20 20 6 14 13 12 15 17 20 21 18 17 23 21 20 20 7 13 9 7 8 12
18 15 13 12 7 10 9 11 6 5 4 4 2 3 7 13 11 6 11 12 10 15 17 19 19 15 2 14 15 14 14 13 15 14 18 21 16 13 14 12 10 7 6 9 14
14 13 13 11 10 7 8 8 6 1 7 5 3 11 15 11 10 6 8 12 14 11 16 17 22 10 8 5 10 16 17 13 21 17 17 20 8 1 12 13 10 7 9 12 15
13 7 6 11 9 4 7 5 6 8 5 9 15 17 13 3 5 10 15 14 12 12 12 16 21 6 3 4 3 14 16 13 17 20 17 17 17 6 9 8 7 7 11 15 18
7 7 7 12 4 1 5 8 8 7 9 9 11 9 14 11 13 11 12 10 9 4 8 11 22 15 5 6 11 11 11 9 8 6 14 13 19 2 6 3 5 11 15 17 19
4 6 5 3 5 4 5 5 4 7 7 6 11 16 17 18 16 17 14 16 9 8 6 10 11 17 8 11 15 9 10 12 10 10 5 5 1 8 5 5 11 13 17 19 19
4 4 2 5 6 3 5 3 2 7 8 11 9 12 14 16 18 17 17 13 4 7 11 15 6 13 21 14 5 8 11 8 4 5 5 4 8 7 3 11 16 17 20 21 21
4 4 2 1 3 4 7 6 8 12 12 6 6 11 16 13 7 9 9 5 9 7 5 5 6 8 12 6 4 7 10 8 2 3 11 7 5 6 14 14 17 20 23 22 21
3 2 2 3 3 6 6 7 9 2 8 5 10 12 10 8 9 5 11 8 6 8 5 5 13 17 15 17 2 6 7 8 13 9 10 13 17 14 13 14 17 21 22 22 21
2 1 1 1 3 6 4 3 4 4 3 4 3 10 13 5 12 16 13 11 11 9 7 2 9 16 19 18 16 13 17 15 14 18 16 15 13 10 11 12 16 20 21 22 23
3 1 2 3 4 2 3 4 8 10 7 9 11 14 14 13 14 20 17 14 11 4 6 5 11 12 17 15 14 15 17 18 18 17 18 18 17 14 7 13 16 17 17 19 19
2 2 3 6 4 4 8 9 8 10 11 15 16 14 15 15 15 17 20 23 17 14 5 4 5 3 9 4 7 12 17 17 15 15 12 14 15 7 9 12 14 13 16 18 16
Wind_Direction
3 360 358 355 354 351 348 344 340 334 329 325 324 324 323 325 330 336 339 254 271 156 136 226 155 242 255 279 269 278 262 275 288 288 18 336 313 163 321 285 289 297 294 326 324
359 357 358 356 355 353 349 346 344 339 332 323 320 321 320 321 331 315 276 229 128 114 82 179 244 230 241 264 248 254 264 311 22 351 295 304 289 305 296 282 272 275 267 275 298
355 355 355 354 353 351 349 348 348 342 333 326 321 319 322 327 335 76 195 168 128 111 303 262 259 256 263 257 217 192 260 22 282 292 280 286 284 291 279 277 280 296 296 290 285
351 350 350 351 351 352 350 347 345 340 334 328 326 323 322 324 349 242 197 216 294 271 276 299 270 263 279 255 280 276 250 296 297 302 293 294 301 284 279 279 286 290 284 294 293
345 346 347 347 350 351 347 344 343 344 345 338 334 335 334 263 87 267 237 257 293 227 221 253 264 267 263 306 284 240 282 290 268 261 265 272 268 272 276 277 278 272 276 289 309
345 343 343 345 348 350 348 345 343 341 341 342 342 349 345 261 311 226 215 6 171 222 250 241 281 292 284 273 267 329 281 283 275 273 271 269 276 273 271 226 256 271 276 278 306
351 349 345 347 348 349 347 343 339 334 343 351 346 356 266 319 248 195 182 227 263 224 256 238 252 249 321 269 268 278 285 284 268 277 293 282 259 233 256 218 266 282 284 285 300
352 351 349 347 347 347 347 342 336 330 360 344 344 77 9 250 187 114 221 255 276 265 257 260 241 264 259 292 266 260 273 270 126 167 174 226 280 291 192 239 267 293 287 285 311
350 349 346 346 347 350 352 346 334 335 359 18 51 283 100 66 95 263 217 246 231 226 231 207 218 254 241 250 274 233 267 275 273 87 260 239 288 297 279 270 278 283 284 302 292
349 350 349 350 351 357 0 1 356 356 351 19 43 271 104 12 312 230 252 208 243 213 217 229 240 252 228 259 272 310 302 295 290 286 222 250 271 284 282 273 273 269 266 272 306
347 352 355 354 356 2 6 17 6 352 351 355 316 298 331 294 279 284 280 276 254 246 262 207 268 258 285 292 294 296 289 286 286 290 280 279 282 276 279 266 264 260 251 281 334
350 352 355 354 359 6 20 41 25 316 310 302 343 350 335 5 276 214 278 258 236 266 270 257 259 299 306 294 287 278 279 280 286 287 283 278 280 290 284 280 267 147 268 354 1
345 349 355 353 359 9 14 8 355 351 271 154 224 35 24 42 70 77 258 266 268 278 270 263 282 284 282 267 267 266 272 283 286 298 285 282 275 274 120 135 133 132 85 21 17
343 341 347 358 9 359 347 353 343 348 278 129 158 150 305 311 203 209 211 239 228 287 301 277 305 280 264 264 268 277 284 287 285 285 281 295 284 276 216 191 160 148 97 46 20
325 332 343 349 340 352 336 340 330 359 292 68 108 216 318 309 351 189 242 234 267 283 230 275 281 262 260 271 287 280 305 283 281 282 285 273 274 267 258 204 160 133 78 49 25
317 324 330 342 339 328 338 332 328 240 236 101 71 355 289 170 297 313 264 255 293 283 258 266 276 263 269 296 293 290 290 273 272 268 262 269 267 269 262 347 119 122 76 29 14
308 319 328 328 304 323 338 324 273 250 148 94 19 341 324 296 298 272 295 275 269 292 277 293 283 235 216 272 262 241 278 281 274 261 261 262 274 293 83 78 96 87 50 17 5
311 321 321 311 312 324 331 285 266 311 302 101 322 308 291 312 297 320 285 274 272 259 281 285 296 324 97 274 310 302 287 273 280 284 290 300 273 293 106 108 103 73 20 1 351
315 322 310 288 309 326 297 271 302 1 1 341 312 289 284 137 259 296 284 299 295 332 298 311 284 338 244 307 278 293 284 279 288 279 280 271 259 114 136 118 69 26 357 348 340
313 301 263 305 315 251 249 263 296 12 341 309 297 278 294 308 308 305 309 316 307 10 338 293 295 296 327 306 246 240 310 271 247 264 255 247 252 46 165 103 12 356 347 344 335
307 284 281 341 93 213 240 256 326 333 335 308 305 297 295 297 293 286 279 297 326 333 334 298 273 287 256 262 283 244 250 245 273 262 281 288 221 109 100 18 352 340 343 342 338
278 267 335 112 262 210 270 346 4 290 298 293 292 282 296 306 293 287 285 283 14 310 291 292 296 286 284 289 256 269 285 285 276 260 247 281 266 127 52 4 345 343 344 342 336
280 295 273 277 255 250 275 264 286 297 289 291 284 306 300 296 307 287 295 6 345 325 303 329 245 289 282 197 188 269 260 230 288 285 250 271 264 147 16 345 346 343 343 335 330
287 259 158 216 322 306 308 287 284 47 281 281 288 299 288 272 247 272 281 316 320 295 342 306 264 257 272 299 192 283 283 262 234 248 256 241 271 276 345 329 335 334 335 338 337
258 333 356 174 209 269 38 11 282 294 308 306 250 262 278 275 282 279 277 295 282 265 250 261 260 268 269 272 276 260 262 250 241 247 259 282 295 304 302 319 321 327 335 334 338
295 264 25 114 105 117 197 210 260 267 257 264 245 286 289 268 270 296 302 298 286 263 226 232 261 280 271 261 263 266 264 256 254 243 256 270 278 270 290 315 317 329 339 330 339
290 301 268 173 182 248 259 265 301 313 282 275 294 303 290 290 306 296 292 286 265 267 245 247 263 270 277 268 280 267 256 245 256 256 251 256 258 1 318 302 314 325 333 330 343
Height
1541 1539 1537 1534 1531 1529 1525 1522 1519 1516 1513 1510 1508 1506 1504 1502 1500 1498 1501 1500 1499 1499 1500 1501 1502 1503 1503 1504 1504 1503 1498 1490 1486 1490 1485 1491 1489 1489 1492 1492 1491 1490 1490 1490 1492
1541 1539 1537 1534 1531 1528 1525 1522 1518 1514 1511 1509 1507 1505 1502 1500 1499 1500 1500 1499 1499 1499 1502 1503 1503 1503 1503 1503 1503 1501 1496 1487 1491 1491 1490 1491 1492 1491 1491 1487 1487 1488 1487 1488 1490
1541 1539 1536 1534 1531 1528 1525 1521 1517 1513 1510 1507 1505 1503 1501 1500 1500 1501 1499 1500 1500 1500 1502 1503 1504 1504 1502 1502 1499 1497 1495 1492 1492 1494 1494 1492 1491 1489 1489 1488 1486 1487 1487 1488 1487
1541 1539 1536 1534 1531 1527 1524 1520 1517 1513 1508 1505 1503 1501 1500 1500 1499 1499 1499 1500 1500 1501 1504 1504 1504 1503 1501 1499 1499 1500 1494 1496 1496 1497 1497 1495 1492 1490 1488 1487 1487 1487 1488 1488 1486
1541 1539 1537 1534 1530 1527 1523 1519 1515 1510 1506 1503 1501 1500 1500 1501 1501 1499 1500 1500 1500 1500 1503 1503 1502 1501 1498 1496 1498 1495 1492 1494 1494 1495 1494 1492 1489 1488 1486 1485 1485 1486 1486 1484 1483
1542 1539 1536 1533 1530 1527 1523 1518 1513 1508 1505 1503 1501 1500 1501 1501 1500 1500 1500 1501 1501 1502 1503 1503 1503 1502 1500 1499 1498 1493 1494 1492 1491 1491 1491 1489 1487 1486 1480 1483 1483 1482 1481 1480 1481
1542 1538 1535 1533 1529 1525 1521 1516 1511 1506 1503 1501 1499 1499 1501 1502 1500 1500 1500 1501 1501 1502 1503 1502 1503 1503 1500 1496 1496 1495 1493 1486 1482 1481 1484 1489 1484 1479 1480 1481 1481 1479 1477 1476 1478
1541 1538 1535 1531 1528 1524 1520 1514 1509 1504 1502 1498 1497 1498 1500 1499 1500 1500 1501 1502 1501 1501 1502 1502 1502 1501 1500 1497 1495 1491 1486 1486 1478 1482 1483 1488 1478 1467 1475 1479 1476 1476 1475 1474 1476
1540 1537 1534 1530 1527 1522 1518 1512 1506 1502 1502 1497 1498 1500 1500 1500 1502 1501 1502 1503 1502 1501 1501 1501 1501 1499 1497 1494 1486 1475 1481 1475 1471 1474 1481 1482 1474 1470 1473 1474 1472 1472 1472 1474 1476
1540 1537 1534 1530 1526 1522 1517 1511 1504 1503 1501 1499 1499 1503 1502 1503 1502 1501 1502 1502 1502 1502 1502 1501 1500 1497 1491 1489 1490 1477 1476 1469 1469 1469 1472 1474 1469 1469 1469 1468 1467 1467 1469 1472 1476
1540 1538 1534 1530 1526 1522 1516 1512 1510 1507 1504 1506 1507 1506 1504 1503 1502 1503 1503 1504 1503 1503 1497 1496 1497 1489 1480 1479 1479 1482 1483 1479 1470 1468 1469 1470 1466 1464 1463 1463 1464 1463 1469 1473 1474
1540 1537 1534 1531 1527 1524 1520 1517 1521 1522 1511 1506 1504 1503 1502 1500 1503 1503 1504 1505 1502 1499 1493 1496 1493 1484 1484 1485 1488 1486 1483 1477 1467 1465 1471 1469 1464 1460 1458 1456 1461 1468 1473 1475 1473
1539 1537 1535 1531 1527 1525 1521 1520 1517 1515 1514 1505 1504 1504 1504 1503 1502 1502 1503 1502 1499 1496 1492 1493 1484 1487 1490 1487 1486 1482 1481 1475 1474 1468 1464 1462 1454 1450 1453 1462 1467 1471 1475 1475 1473
1540 1537 1535 1532 1531 1526 1525 1521 1517 1515 1504 1502 1503 1504 1505 1503 1501 1501 1501 1502 1497 1494 1491 1489 1484 1486 1487 1486 1483 1480 1472 1469 1470 1471 1470 1456 1455 1449 1449 1456 1463 1469 1472 1472 1472
1538 1536 1534 1532 1531 1531 1528 1522 1517 1517 1502 1502 1504 1506 1506 1506 1504 1502 1502 1501 1495 1490 1494 1481 1481 1483 1484 1479 1477 1474 1473 1476 1472 1469 1465 1456 1456 1441 1436 1441 1455 1467 1472 1472 1472
1537 1535 1533 1533 1532 1530 1527 1523 1519 1512 1496 1499 1503 1503 1503 1503 1503 1504 1503 1503 1499 1493 1486 1479 1480 1484 1478 1477 1477 1476 1477 1474 1469 1465 1464 1452 1449 1439 1433 1435 1452 1464 1470 1473 1472
1535 1533 1532 1531 1532 1529 1527 1525 1513 1503 1492 1499 1501 1502 1501 1499 1495 1498 1499 1495 1494 1490 1481 1471 1470 1474 1481 1479 1475 1477 1482 1480 1475 1461 1449 1436 1438 1428 1447 1454 1460 1467 1471 1472 1472
1532 1530 1529 1529 1529 1529 1528 1522 1517 1494 1494 1502 1505 1502 1500 1496 1498 1499 1500 1492 1487 1489 1489 1485 1474 1470 1479 1482 1481 1475 1474 1476 1479 1464 1449 1435 1455 1438 1456 1461 1466 1470 1472 1471 1472
1530 1530 1529 1526 1526 1528 1530 1517 1502 1504 1511 1510 1506 1498 1492 1501 1505 1499 1495 1491 1490 1491 1497 1490 1477 1477 1483 1485 1487 1475 1472 1468 1472 1462 1458 1450 1440 1455 1459 1463 1466 1467 1470 1471 1472
1530 1529 1528 1524 1524 1527 1525 1516 1511 1516 1517 1514 1513 1502 1500 1497 1500 1498 1495 1492 1496 1502 1503 1495 1487 1484 1485 1488 1483 1486 1476 1477 1470 1483 1467 1444 1433 1449 1463 1463 1466 1467 1470 1470 1470
1529 1527 1525 1524 1525 1526 1519 1513 1517 1520 1522 1518 1512 1509 1506 1506 1503 1502 1499 1497 1498 1500 1502 1500 1497 1484 1483 1482 1476 1478 1478 1477 1475 1472 1473 1461 1445 1464 1468 1468 1469 1470 1470 1469 1468
1529 1525 1526 1525 1528 1521 1518 1518 1525 1520 1522 1520 1517 1516 1514 1510 1504 1502 1499 1498 1507 1507 1504 1501 1501 1491 1482 1476 1483 1484 1482 1484 1491 1483 1478 1478 1461 1464 1467 1469 1470 1469 1468 1466 1466
1527 1525 1526 1528 1524 1525 1520 1522 1524 1522 1520 1519 1517 1518 1518 1516 1519 1508 1505 1506 1510 1509 1504 1501 1495 1494 1473 1470 1484 1486 1483 1486 1499 1500 1489 1484 1461 1462 1466 1470 1469 1468 1467 1466 1463
1528 1525 1527 1528 1528 1526 1522 1522 1522 1523 1523 1523 1521 1520 1519 1520 1516 1516 1507 1507 1511 1512 1512 1511 1501 1494 1485 1480 1503 1496 1492 1491 1490 1486 1476 1471 1465 1461 1468 1470 1469 1467 1466 1465 1463
1527 1526 1526 1525 1527 1529 1532 1532 1529 1528 1527 1527 1525 1522 1516 1521 1513 1507 1504 1506 1507 1508 1512 1514 1505 1493 1485 1485 1486 1494 1488 1483 1491 1481 1479 1469 1469 1470 1470 1470 1468 1466 1464 1464 1463
1528 1529 1529 1530 1530 1532 1532 1530 1527 1521 1523 1522 1520 1514 1513 1513 1512 1509 1508 1506 1505 1505 1508 1510 1498 1489 1482 1479 1479 1479 1477 1474 1473 1474 1477 1473 1470 1468 1468 1468 1467 1465 1465 1462 1460
1526 1526 1527 1528 1529 1529 1523 1522 1521 1523 1521 1521 1518 1514 1512 1510 1511 1509 1508 1505 1503 1503 1505 1505 1499 1496 1483 1479 1479 1478 1465 1466 1466 1465 1467 1468 1466 1465 1468 1468 1465 1464 1464 1460 1457